Rechercher aéroport 
image banner adimage banner adimage banner ad
image banner ad

SJXE - Sinal Construtora Heliport

Situé à Silva Jardim, Brazil

ICAO - SJXE, IATA -

Données fournies par Airmate  

Information générale

Coordonnées: S3°9'16" W41°52'5"
Élévation : 190 feet MSL.
Variation magnétique : -21° East
Voir autres Aéroports à Piauí

Données opérationnelles

Special qualification required
Heure actuelle UTC:
Heure actuelle locale:
METAR: SBPB 161315Z 06010KT 9999 FEW020 SCT100 31/25 Q1010
TAF: TAF SBPB 160840Z 1612/1624 10010KT 9999 FEW020 TX34/1615Z TN32/1618Z BECMG 1613/1615 07015KT SCT020 FEW030TCU BECMG 1616/1618 07020KT TS BKN020 FEW030CB BECMG 1619/1621 07010KT NSW SCT020 FEW030TCU RMK PGS
Voir NOTAMs / SUP AIP / TFR affectant cet aéroport [VIEW]
Fréquences de communication: [VIEW]

Pistes:

Identifiant RWYQFULongueur (ft)Largeur (ft)SurfaceLDA (ft)
11393782ASPH
29393782ASPH

Coordonnées de l'aéroport

Adresse: Silva Jardim Brazil

Vue satellite de SJXE